GFSFLT2_925_thetae_000.txt.gz
Theta_e
320 319 314 312 311 309 303 300 298 297 295 293 292 292 291 291 291 291 291 291 291 291 292 292 292 293 293
319 313 307 308 306 302 298 296 296 293 292 289 291 289 290 290 289 289 289 289 290 290 290 290 291 291 292
319 306 304 303 299 298 297 296 294 291 288 288 287 288 288 288 288 288 287 287 288 289 290 290 290 290 290
315 303 300 299 298 300 298 296 294 289 288 287 286 286 287 287 287 286 286 287 288 289 289 289 289 289 290
305 301 299 297 298 298 298 296 291 288 288 288 287 287 287 286 286 286 287 287 289 288 288 288 288 288 288
307 305 301 300 299 297 295 291 291 288 287 287 287 287 287 286 286 285 286 288 287 287 287 287 287 287 287
306 304 303 299 297 294 291 290 289 287 286 287 287 287 286 286 285 285 286 287 286 286 286 285 285 286 286
313 309 302 297 295 292 290 288 286 285 285 288 288 287 286 286 285 284 285 285 285 285 284 284 284 285 285
303 301 296 294 292 287 287 287 288 287 286 286 287 286 285 285 285 284 284 284 284 284 284 284 284 284 284
293 291 290 287 286 288 287 287 287 287 286 285 286 284 285 285 285 284 283 283 283 283 283 283 283 283 284
290 289 288 287 286 285 284 286 286 286 285 284 284 283 283 284 284 283 283 283 283 283 283 283 283 283 284
288 287 287 286 286 285 283 283 284 285 284 282 282 281 282 281 283 283 283 283 282 282 283 283 283 283 283
287 286 286 286 284 283 282 282 282 282 283 282 282 281 281 280 281 281 282 282 282 282 282 282 283 282 282
286 285 284 283 283 283 283 283 283 283 282 280 281 280 280 281 281 281 282 282 282 282 282 282 282 283 283
285 283 284 283 283 283 283 283 283 284 284 283 282 280 280 279 280 281 282 282 282 282 282 282 283 283 284
284 283 284 284 283 282 283 283 283 283 283 282 280 280 281 282 280 280 281 281 282 282 282 283 284 284 284
284 284 284 283 283 283 282 283 283 283 282 280 279 280 281 283 282 280 280 280 281 281 282 283 283 283 284

GFSFLT2_925_thetae_003.txt.gz
Theta_e
323 321 320 317 315 310 306 305 301 299 297 298 298 296 294 292 292 292 292 292 292 292 293 293 293 293 293
321 320 318 315 312 309 306 302 299 299 297 296 296 294 289 291 291 291 290 290 290 290 291 291 292 292 292
321 319 311 310 304 303 302 300 299 297 295 294 292 289 290 290 290 290 290 289 289 289 290 291 291 291 291
318 308 304 302 304 301 299 298 298 296 292 291 290 289 289 289 289 289 288 288 288 289 290 290 290 290 290
317 306 303 299 300 300 301 300 297 295 291 290 289 289 288 288 289 288 288 288 288 289 290 289 289 289 289
316 310 309 305 302 300 299 296 293 291 289 289 288 288 287 287 287 288 287 287 288 289 288 288 288 288 287
315 312 312 307 303 298 297 294 292 290 288 287 288 288 288 287 288 287 287 287 288 288 287 287 287 287 287
316 314 311 305 304 300 295 291 289 287 286 288 289 288 288 287 287 287 286 287 287 286 286 286 286 286 286
311 310 307 304 301 295 290 289 289 287 286 287 287 287 286 286 285 286 286 286 286 285 285 286 286 286 286
299 297 297 294 294 293 289 290 289 288 287 286 287 285 285 286 286 285 285 284 285 285 285 285 285 285 284
292 291 289 289 288 288 288 288 287 288 286 286 285 284 284 284 284 284 284 284 284 284 284 284 285 285 285
291 289 288 287 286 286 286 286 286 286 285 284 283 283 282 282 282 284 283 282 283 283 283 283 284 284 285
291 289 287 286 286 285 284 284 284 284 284 283 282 281 282 281 281 281 282 283 283 283 283 283 283 283 283
288 287 286 285 284 284 284 283 284 284 282 282 281 281 281 280 280 282 282 282 283 282 283 283 283 283 283
286 285 285 285 285 284 284 284 285 285 284 283 283 282 281 281 280 280 281 282 283 283 283 282 283 283 283
286 285 285 285 284 284 284 284 284 284 284 284 283 281 281 283 282 281 282 282 282 282 282 282 282 283 284
285 285 285 284 284 284 284 284 284 284 284 283 281 280 278 280 282 284 282 281 281 280 280 281 282 282 283

GFSFLT2_925_thetae_006.txt.gz
Theta_e
323 323 321 320 318 318 317 315 311 307 307 306 304 301 298 297 296 294 294 293 293 293 293 294 294 294 294
323 322 321 318 316 316 315 308 306 305 303 301 299 298 296 295 293 293 293 292 292 292 291 292 292 292 293
322 322 320 316 307 308 306 302 301 302 300 298 297 295 295 292 292 292 292 291 291 290 290 290 291 292 292
321 320 312 307 306 303 300 300 299 298 298 297 295 294 293 292 292 291 291 291 290 290 290 290 291 291 291
320 314 304 300 303 304 303 300 299 297 295 294 293 292 290 290 291 290 290 289 289 289 290 290 291 290 290
320 317 313 310 307 304 304 298 297 298 296 292 292 290 289 289 288 289 289 289 289 289 289 290 289 289 289
321 319 317 313 307 304 303 300 295 293 294 289 289 288 288 288 288 289 289 289 289 288 289 289 289 288 288
319 320 318 316 311 308 303 295 291 290 290 288 288 288 288 288 288 289 289 289 288 288 288 288 288 288 287
320 319 318 315 311 303 294 293 289 287 286 287 287 287 287 287 287 287 287 287 287 287 287 287 287 287 287
310 310 310 306 302 303 295 293 290 289 286 287 286 286 284 285 286 286 286 286 286 286 286 286 286 286 286
300 298 296 293 293 294 293 294 289 288 287 286 286 285 283 284 284 285 284 284 284 284 284 284 285 286 286
292 291 290 290 291 291 291 290 289 287 287 286 284 284 282 281 281 283 283 282 282 283 283 283 284 285 285
292 291 290 290 289 288 287 286 286 286 286 285 284 282 281 281 280 281 281 282 282 282 283 283 283 283 283
292 290 288 287 286 285 285 284 283 283 283 283 282 281 281 281 281 279 279 281 282 281 282 282 283 283 283
288 287 286 286 285 284 284 284 285 284 283 282 282 282 281 281 280 280 280 280 281 281 282 281 281 282 282
287 286 286 285 285 285 284 284 284 284 284 283 283 281 280 281 281 280 280 280 282 281 281 280 280 281 281
286 286 285 285 285 285 284 284 284 284 284 283 281 279 272 274 280 283 282 283 282 281 280 279 280 280 281

GFSFLT2_925_thetae_009.txt.gz
Theta_e
323 323 322 322 321 321 319 318 318 319 318 317 315 313 312 308 305 303 301 299 297 296 296 296 296 296 296
323 323 322 322 321 321 319 318 318 319 317 315 311 309 307 304 302 300 298 297 295 294 294 294 294 294 295
323 323 322 320 317 316 314 314 313 315 312 311 308 306 303 301 300 298 296 295 294 293 293 292 292 292 293
322 322 322 313 314 311 305 305 306 307 307 306 305 304 302 299 298 295 295 294 293 292 292 291 291 292 293
319 321 320 304 307 310 310 307 303 302 301 302 301 300 299 298 295 294 293 293 292 292 291 291 291 291 292
317 318 318 314 312 310 309 301 300 299 298 297 298 296 295 295 293 292 292 292 291 291 291 291 291 292 291
315 316 318 319 316 312 309 306 305 300 297 296 292 292 293 292 290 290 290 291 291 290 290 290 290 291 290
313 315 316 318 318 314 311 305 295 295 296 292 289 291 292 291 289 290 290 290 290 290 290 289 289 289 289
307 310 311 313 317 312 300 297 293 290 291 289 288 288 288 288 288 290 290 290 290 290 289 289 288 288 288
304 306 307 309 313 313 305 301 293 290 289 288 287 287 287 286 287 287 287 288 289 289 289 288 288 287 287
303 303 301 303 305 306 304 301 294 292 288 291 286 285 284 284 284 285 286 287 286 285 285 286 286 286 286
300 295 293 291 292 295 295 295 294 294 289 290 286 285 284 283 283 282 283 283 283 283 283 283 284 285 286
295 292 291 292 292 291 290 289 289 288 288 287 286 284 283 281 281 281 281 282 282 282 282 282 282 283 283
292 291 290 289 287 286 285 286 285 284 285 284 284 283 281 281 281 280 280 280 281 282 281 281 282 282 282
289 288 287 286 285 285 285 285 284 284 283 283 282 282 281 281 280 280 280 280 281 281 281 281 281 281 281
288 287 286 285 285 284 284 285 285 283 282 282 282 281 280 281 281 280 280 280 281 282 281 280 280 281 281
287 286 285 285 285 285 285 285 284 282 282 282 280 276 271 276 280 282 281 282 282 281 281 280 280 280 281

GFSFLT2_925_thetae_012.txt.gz
Theta_e
321 322 323 323 322 322 321 321 319 320 319 319 319 318 318 319 319 319 316 311 309 307 305 303 300 300 299
317 318 320 321 322 321 320 320 319 319 320 319 318 318 318 318 317 315 312 308 306 304 302 300 299 299 299
315 315 317 319 320 320 320 318 318 319 317 318 317 317 317 317 314 312 307 305 302 300 299 297 297 297 297
313 313 314 315 317 317 316 311 312 315 313 314 314 315 315 314 309 306 304 301 300 298 296 295 295 294 294
310 312 313 314 311 313 313 313 311 310 310 310 310 312 311 309 306 303 301 298 297 296 295 294 293 293 293
306 307 309 312 313 314 313 313 313 310 305 305 306 307 307 306 303 300 298 296 296 296 295 294 293 293 293
301 302 304 307 311 312 313 313 311 307 303 303 301 302 300 301 299 297 296 295 294 294 293 293 292 292 292
298 299 301 303 305 307 309 312 305 304 301 300 294 297 294 296 297 296 294 294 293 293 293 292 292 291 292
299 299 300 300 302 304 306 302 301 295 296 294 290 289 290 292 294 292 291 291 292 292 292 292 291 290 290
300 301 301 301 302 303 304 305 303 293 292 293 289 288 288 287 289 290 291 292 292 292 292 291 291 290 289
298 299 301 302 299 297 298 303 304 294 292 293 288 286 287 285 285 287 289 290 291 291 291 290 290 289 288
294 296 299 296 294 293 294 296 297 296 292 292 287 286 285 285 285 283 284 286 288 289 289 288 287 288 287
293 294 293 292 290 289 290 290 288 287 289 291 289 286 285 285 283 281 282 283 284 284 283 283 283 283 285
291 291 290 288 287 287 287 286 285 283 285 285 287 284 281 282 281 280 281 281 281 281 281 282 282 282 282
289 289 288 286 285 286 286 285 285 284 283 282 281 281 282 282 280 281 280 280 281 281 281 281 281 281 281
288 288 287 285 285 285 286 285 284 284 282 281 281 281 280 280 281 280 280 280 280 281 280 280 281 282 282
287 287 286 285 285 285 285 285 284 281 279 280 279 273 272 276 279 281 280 280 281 281 281 280 281 281 281

GFSFLT2_925_thetae_015.txt.gz
Theta_e
309 311 313 314 316 318 319 320 319 319 319 319 320 319 320 320 319 319 320 321 320 319 321 319 316 312 308
307 308 310 312 313 314 316 317 319 319 319 319 319 318 319 319 318 318 318 320 320 320 319 316 313 310 307
304 306 307 309 312 313 314 315 315 317 318 318 318 318 318 318 318 318 318 319 320 319 315 312 309 306 303
299 301 302 304 307 310 312 313 313 314 314 315 315 315 316 315 316 317 318 318 318 313 310 307 304 302 301
297 297 300 302 302 305 307 309 310 312 312 312 311 311 312 313 315 317 317 316 313 308 304 301 300 299 299
294 295 296 297 299 301 303 305 307 309 311 311 311 309 310 311 313 314 313 310 306 303 300 299 298 297 296
293 294 295 296 298 299 300 301 302 306 306 308 309 307 308 308 310 311 308 304 302 300 298 297 296 295 294
292 294 296 297 298 299 300 300 300 302 304 305 306 303 303 304 306 305 303 300 299 298 297 296 295 294 294
295 295 295 296 298 300 301 300 301 302 302 303 299 293 293 296 301 302 300 299 297 296 296 294 293 294 294
294 292 293 293 295 298 300 301 301 302 299 298 291 290 290 290 296 299 298 296 294 292 292 293 294 293 292
290 290 291 291 294 295 295 297 298 298 300 296 290 289 288 286 287 290 291 291 291 292 292 294 293 292 291
290 290 290 291 292 291 291 290 290 290 294 294 290 288 286 286 286 286 289 290 291 291 292 293 293 292 290
290 290 290 290 289 288 287 285 285 286 288 289 289 287 286 286 284 283 284 285 288 290 290 291 291 291 290
289 289 289 288 287 287 287 285 284 283 283 284 286 287 283 283 284 284 283 284 285 287 288 288 287 287 287
288 287 287 288 286 286 286 285 284 283 282 282 282 282 282 281 282 282 280 280 281 282 282 281 281 282 282
287 286 286 287 286 285 285 285 284 283 282 282 281 281 280 281 281 279 280 280 280 280 281 280 280 281 281
287 286 285 285 286 285 285 284 283 281 279 279 278 277 278 278 279 281 280 280 280 279 280 280 280 282 282

GFSFLT2_925_thetae_018.txt.gz
Theta_e
300 300 295 298 304 308 309 311 312 312 313 315 316 318 318 318 318 318 320 321 321 321 322 322 321 322 322
296 296 296 299 299 299 302 305 307 311 312 312 313 314 317 318 318 318 318 318 319 320 321 322 321 321 321
294 294 295 295 298 298 300 302 305 308 309 311 312 312 313 315 317 317 317 318 318 318 319 321 321 321 320
293 293 293 294 295 296 297 298 299 301 304 306 308 310 310 312 314 314 315 316 317 316 316 318 320 321 320
293 293 292 292 293 293 295 296 297 299 301 303 305 308 310 310 311 311 312 314 314 315 316 317 319 320 316
291 291 290 291 292 292 294 296 297 297 299 301 301 305 307 310 309 310 310 311 313 314 315 317 317 315 310
290 290 290 291 292 293 295 296 297 297 298 299 299 300 302 306 307 308 308 310 312 312 314 313 309 306 304
290 291 291 292 293 294 294 295 297 297 299 299 299 300 302 303 304 306 306 307 308 311 310 305 303 301 299
289 290 291 292 292 292 293 293 295 296 298 300 300 301 299 299 301 303 304 306 308 304 301 300 299 298 297
289 288 288 289 290 290 291 292 294 293 297 300 300 295 295 290 293 297 304 305 303 301 299 298 297 294 293
286 287 288 289 289 289 290 291 291 290 291 294 295 292 291 289 289 294 300 301 300 299 297 295 293 292 292
286 287 287 288 288 288 288 288 287 285 285 286 290 292 288 287 289 288 291 293 292 292 293 293 293 292 292
285 286 286 287 287 287 287 287 286 284 283 285 287 288 288 287 285 284 286 288 291 291 292 293 293 292 292
284 284 284 287 286 286 286 286 285 284 282 282 284 286 284 285 286 285 285 286 288 290 291 291 291 291 290
283 283 284 286 286 286 285 286 284 283 282 282 281 282 283 284 284 284 283 284 285 286 288 284 286 288 290
282 283 284 286 285 286 285 284 284 283 282 280 281 281 281 282 282 281 280 280 281 284 285 282 281 284 286
281 283 285 285 285 285 285 284 282 281 279 278 277 279 282 281 280 280 280 280 280 280 282 281 281 282 282

GFSFLT2_925_thetae_021.txt.gz
Theta_e
294 294 297 295 294 294 295 295 298 300 299 303 305 308 310 312 314 315 316 318 319 319 320 322 323 324 323
293 294 293 293 293 293 294 295 295 297 300 302 301 301 306 309 312 313 313 315 317 318 318 319 322 321 324
292 291 291 292 292 292 292 293 294 295 297 298 300 302 302 302 306 310 311 312 314 316 316 317 317 318 319
291 291 291 290 291 291 290 291 292 293 294 295 297 299 300 302 305 307 308 310 312 314 314 315 316 317 318
291 291 291 291 291 290 291 291 291 292 293 295 296 298 301 300 301 305 309 310 310 311 312 313 316 316 315
290 291 290 289 290 291 291 293 293 293 294 296 296 297 297 298 300 301 302 307 309 310 309 309 311 314 316
288 289 289 289 289 291 291 292 293 293 294 294 294 296 297 298 299 299 300 304 305 306 307 309 311 313 314
287 286 287 288 289 291 291 291 291 292 293 295 294 295 297 299 299 300 302 303 303 304 306 307 309 310 312
286 287 288 288 287 289 290 291 292 292 291 293 294 294 295 299 300 300 301 302 302 303 304 305 309 310 309
285 285 285 285 286 287 288 290 291 290 291 291 292 292 295 294 295 297 298 301 301 302 305 307 303 302 301
283 283 284 285 286 287 287 289 289 289 289 289 290 290 292 294 292 295 297 301 305 305 303 300 299 299 297
282 283 285 284 284 285 285 287 287 287 288 285 285 287 290 292 293 290 292 298 300 299 297 295 295 294 294
283 283 283 283 283 284 285 286 287 286 285 283 283 284 287 291 290 288 289 289 294 294 293 292 291 292 293
282 282 282 282 283 284 286 286 286 286 283 282 282 283 288 289 289 289 287 289 290 290 290 291 291 291 292
281 282 282 282 283 286 286 286 286 285 284 283 282 283 284 286 286 286 287 286 288 287 287 286 289 291 291
281 281 282 283 285 286 286 285 284 283 282 281 280 283 284 283 283 284 283 283 285 286 286 285 284 287 290
280 281 282 284 285 286 285 284 283 282 280 279 279 281 286 284 282 281 283 282 283 283 285 285 285 283 288

GFSFLT2_925_thetae_024.txt.gz
Theta_e
292 292 292 292 293 292 292 292 293 293 294 295 296 297 300 302 302 304 308 311 313 314 316 318 320 320 318
292 291 292 291 292 292 291 292 292 292 292 293 294 296 297 299 300 302 303 303 307 311 312 315 318 320 320
291 291 291 291 291 291 291 291 291 291 291 291 292 294 295 297 299 300 301 303 307 308 308 312 313 316 318
290 291 291 290 290 291 292 291 291 291 292 292 293 294 295 296 298 299 301 301 304 308 309 310 312 314 314
291 291 290 290 290 290 291 290 290 291 292 293 293 294 295 296 298 297 298 299 302 303 308 310 311 312 312
290 290 289 288 289 289 289 291 292 290 291 292 292 294 294 295 296 298 298 298 299 301 302 304 309 310 309
288 288 288 288 288 288 289 290 292 290 290 291 292 293 293 294 295 296 296 298 300 300 301 304 306 306 307
286 286 286 287 287 288 288 289 289 290 291 293 292 293 293 293 294 295 297 298 300 301 302 303 304 304 306
285 286 286 286 286 286 287 289 290 290 290 291 291 292 292 292 292 293 297 299 301 302 302 302 303 303 305
285 284 284 284 284 285 286 288 289 289 288 290 290 290 292 291 294 294 294 295 297 298 300 301 302 304 308
283 283 283 284 284 285 284 285 286 288 286 288 289 289 291 291 290 291 293 294 294 296 300 303 303 306 304
283 283 283 283 283 284 283 284 284 285 285 287 287 288 289 289 290 291 293 292 295 299 302 303 302 301 302
283 283 282 282 283 283 284 284 285 286 287 287 285 285 285 287 288 292 292 291 294 293 293 295 296 297 298
282 282 282 282 283 283 284 285 287 288 286 284 283 284 285 285 288 292 289 290 290 291 291 291 292 292 294
281 281 282 282 283 283 285 287 286 286 285 284 283 283 285 287 290 290 289 289 290 290 290 290 289 290 291
280 281 282 282 283 286 285 285 285 284 282 281 281 282 286 285 285 287 287 288 288 289 290 290 290 290 291
280 281 281 283 285 286 286 285 285 283 282 280 281 284 287 286 283 283 286 287 287 288 288 288 288 290 290

GFSFLT2_925_thetae_027.txt.gz
Theta_e
291 291 291 291 291 291 291 292 292 291 292 292 293 293 293 293 294 296 298 299 301 304 306 309 313 315 317
290 290 290 290 290 291 291 291 291 291 290 291 292 292 292 293 293 294 296 297 299 301 303 306 309 313 315
290 289 289 290 290 291 290 289 289 290 290 290 290 291 293 293 294 295 296 296 298 300 302 304 307 310 312
289 289 290 290 290 289 288 288 289 290 289 288 290 291 291 293 293 295 296 297 298 298 301 302 306 309 310
289 290 290 289 288 288 288 288 288 288 289 289 290 291 292 292 292 294 294 296 297 298 299 300 302 304 309
290 289 288 287 287 287 287 287 288 288 289 289 289 289 290 291 292 293 294 294 295 296 297 299 300 302 304
287 286 286 286 286 287 287 288 288 287 288 288 289 290 291 292 293 292 293 294 295 296 297 299 300 301 303
285 285 285 286 286 286 286 286 286 287 287 288 288 290 289 290 291 291 293 293 294 295 297 300 300 301 303
284 285 285 285 285 285 285 286 286 286 286 286 287 288 288 289 289 290 292 293 293 295 299 301 301 302 304
284 283 283 283 283 284 284 285 285 285 285 286 286 287 288 288 290 289 289 290 292 294 296 299 300 301 302
283 283 283 283 283 283 283 283 284 285 284 285 286 286 287 288 288 288 288 290 292 292 293 296 298 300 301
282 282 282 282 282 282 282 283 283 284 284 285 285 286 286 288 287 287 287 289 291 292 297 300 300 301 303
282 282 282 281 282 282 283 283 284 285 285 286 286 285 285 285 285 285 287 290 291 292 294 298 301 302 302
281 281 281 281 282 283 283 284 286 286 284 285 284 284 284 285 286 285 287 290 290 290 291 291 294 296 297
280 280 281 281 282 283 286 286 286 285 283 282 281 282 284 286 289 290 290 290 290 291 291 291 290 293 296
280 280 281 281 283 284 284 284 285 285 284 282 281 282 285 286 285 288 289 289 290 290 291 291 291 291 292
280 281 281 282 284 284 283 283 284 284 284 282 281 281 286 285 284 286 288 289 288 288 290 290 290 292 293

GFSFLT2_925_thetae_030.txt.gz
Theta_e
288 288 289 288 288 288 288 289 290 290 290 291 290 290 291 292 293 293 293 294 295 296 297 299 301 304 307
288 288 288 288 288 288 288 289 290 290 289 288 289 290 291 292 291 291 292 294 295 295 296 297 298 300 303
288 288 288 287 287 288 289 288 287 287 287 287 288 288 289 290 291 292 293 293 294 295 296 297 298 300 302
288 288 287 287 288 287 287 286 286 286 286 286 287 288 289 290 291 291 292 291 292 294 296 297 298 299 302
287 287 288 286 286 285 285 285 285 285 286 286 287 287 287 288 288 289 290 292 293 294 295 296 299 299 300
288 285 285 284 285 284 284 285 286 286 286 286 286 286 286 287 288 289 292 292 295 295 294 294 296 297 299
285 284 284 284 284 285 285 286 286 285 285 285 285 286 286 287 287 289 289 290 293 293 294 295 296 297 298
284 284 285 285 285 285 284 284 284 284 284 285 285 286 285 285 286 287 288 289 290 291 293 293 294 297 298
284 284 284 283 283 283 284 284 284 284 283 284 284 284 284 284 285 286 288 289 289 291 292 294 295 298 297
282 281 282 282 282 282 283 283 283 283 283 283 283 284 285 285 286 287 286 288 289 289 291 294 295 298 300
281 281 281 281 281 281 281 282 282 282 282 284 284 284 285 285 286 286 287 286 287 287 288 292 294 296 300
281 281 281 281 281 281 281 282 282 283 283 284 284 285 285 285 285 285 284 284 285 286 290 291 293 296 300
281 281 280 280 280 281 282 282 284 285 285 284 283 282 283 283 284 284 285 286 286 289 290 293 295 296 299
280 280 280 280 281 281 282 284 284 285 284 283 283 282 281 283 284 286 286 286 289 290 291 294 297 300 301
280 280 280 281 281 281 283 283 283 284 284 283 282 281 282 283 286 286 289 289 290 290 292 292 294 296 298
279 280 280 280 281 282 283 283 283 284 284 283 281 281 284 285 285 287 288 289 290 291 292 293 292 293 296
279 280 280 281 282 283 283 283 283 285 284 282 281 281 283 284 285 287 287 288 290 290 292 292 291 291 292

GFSFLT2_925_thetae_033.txt.gz
Theta_e
287 287 287 287 287 287 287 287 287 288 289 290 290 290 290 289 290 291 291 293 294 294 294 296 297 298 298
287 287 287 287 287 287 286 287 287 287 287 288 288 288 288 288 289 290 290 290 291 292 293 293 295 297 298
287 287 286 287 286 286 286 285 285 285 285 285 285 286 287 288 289 289 290 291 292 292 293 294 295 295 296
286 287 286 286 286 284 284 284 284 284 284 284 285 286 286 287 287 288 288 289 290 290 291 292 293 294 295
287 286 287 284 284 283 284 284 284 284 284 285 285 286 285 285 285 286 286 288 289 291 292 293 294 294 295
287 285 284 284 283 283 284 285 285 285 285 284 284 284 284 284 285 286 287 289 290 289 293 292 293 295 295
285 284 284 283 283 285 284 284 284 284 283 284 283 284 284 284 285 285 287 287 287 289 290 291 293 294 294
283 283 284 284 284 283 283 283 283 283 283 283 283 283 283 283 283 285 286 287 287 289 289 291 292 292 293
284 283 282 282 282 283 282 282 282 282 282 282 282 282 282 283 283 284 285 287 289 290 290 291 292 293 294
281 280 280 281 282 281 281 281 282 282 282 282 283 283 284 284 284 285 285 286 286 287 289 290 290 291 292
280 280 281 281 281 281 281 281 281 282 282 284 284 284 284 284 285 285 285 285 285 286 286 287 289 291 292
281 281 281 280 280 280 280 281 281 282 282 284 284 284 283 282 282 284 284 284 284 284 285 286 288 290 292
281 280 280 280 280 280 281 281 282 283 283 283 284 284 282 281 281 283 285 285 286 286 286 287 289 290 291
280 280 280 280 280 281 281 281 283 283 283 284 284 282 281 280 281 283 285 287 289 289 290 291 291 292 294
279 279 279 280 280 281 282 282 283 283 283 284 283 282 282 282 282 285 287 289 290 290 292 294 295 297 297
279 279 280 280 280 282 282 282 283 283 285 284 283 282 283 284 285 287 288 289 290 291 292 293 292 296 299
278 279 279 280 281 282 281 282 283 285 285 283 283 282 283 284 284 287 287 289 292 291 291 291 292 294 295

GFSFLT2_925_thetae_036.txt.gz
Theta_e
286 286 287 287 286 286 286 286 286 286 287 287 287 288 288 289 290 290 291 290 291 292 293 294 295 296 297
287 286 286 286 286 286 286 286 286 285 284 285 286 286 287 287 288 288 289 290 290 291 291 292 293 294 294
285 285 286 286 286 286 285 284 283 283 284 284 285 285 286 287 287 288 289 289 290 290 291 291 292 293 294
286 286 286 286 285 284 283 283 283 283 283 284 285 285 285 286 286 287 287 288 288 288 289 290 290 292 292
286 285 286 284 283 283 283 283 283 284 284 283 284 284 284 284 284 284 285 285 286 287 288 289 290 291 292
286 284 283 283 283 283 283 285 283 283 283 283 283 283 283 283 283 284 285 286 287 288 289 290 291 292 292
283 283 283 283 284 284 283 283 283 283 282 282 282 282 282 282 283 284 285 286 286 287 288 289 289 290 291
282 283 284 283 283 283 283 283 282 282 281 282 282 282 282 282 283 284 285 285 286 287 288 289 289 290 291
284 283 282 282 282 283 282 282 281 282 281 281 282 282 282 282 283 284 285 286 286 287 289 290 290 291 290
280 280 280 280 281 281 281 281 281 281 281 282 282 283 284 284 284 284 284 284 285 286 287 288 289 290 290
280 280 281 281 280 280 280 280 281 281 281 282 283 283 284 284 284 283 282 282 283 284 285 287 288 289 290
280 280 280 280 280 280 280 280 280 281 281 281 282 283 283 284 283 282 282 282 283 284 284 285 287 288 289
280 280 279 279 279 280 280 281 281 282 282 283 283 283 283 282 282 281 283 283 284 285 285 285 285 286 288
279 279 279 279 279 280 280 281 282 282 283 284 284 283 282 280 281 282 283 284 287 288 289 288 287 287 288
278 278 278 279 279 279 281 281 282 282 284 285 283 283 283 283 282 285 288 288 290 290 291 293 289 289 289
277 278 278 279 279 280 280 281 281 283 285 284 283 283 284 285 286 287 289 289 291 290 292 294 294 295 293
277 278 278 278 279 280 280 281 282 284 284 283 283 283 284 285 286 288 289 290 291 291 291 292 292 293 296

GFSFLT2_925_thetae_039.txt.gz
Theta_e
285 285 285 285 285 285 285 285 286 286 287 287 286 286 287 287 288 289 289 290 291 292 293 293 294 294 295
285 285 284 285 285 285 286 286 285 285 284 285 285 286 286 287 287 288 289 289 289 290 290 291 292 293 294
284 285 285 285 285 285 285 283 283 283 283 284 284 285 286 286 287 287 288 288 289 290 290 290 291 292 293
285 285 285 285 284 283 282 282 283 283 283 284 284 284 284 284 285 286 286 286 287 287 288 289 290 290 291
285 284 283 283 282 282 282 283 283 283 283 283 282 282 282 283 283 284 284 285 286 286 287 287 288 289 290
284 283 282 282 282 282 284 283 283 283 283 283 283 282 282 282 282 283 285 285 286 287 288 288 289 289 290
282 281 282 282 284 283 283 283 283 283 283 282 282 281 282 282 282 283 284 285 286 287 287 288 288 289 290
282 283 284 283 282 283 283 283 282 282 281 282 281 281 281 281 282 283 284 285 286 287 287 288 288 289 289
284 282 281 282 282 283 282 281 281 281 281 281 281 281 281 282 282 283 285 285 286 287 287 287 288 289 290
280 279 280 280 281 281 281 280 280 281 281 281 281 282 283 283 283 283 284 284 285 285 286 287 288 288 289
279 280 280 280 280 280 280 280 280 280 280 282 282 282 282 283 284 283 283 283 284 283 284 286 287 289 289
279 280 279 279 279 279 279 279 280 280 281 281 282 282 283 283 283 283 283 283 283 283 283 283 285 287 288
279 279 278 278 278 278 279 279 280 281 282 282 283 283 284 284 283 283 284 284 284 284 284 284 285 285 287
278 278 278 278 278 278 279 279 280 281 282 283 285 284 283 283 283 283 284 286 288 289 289 288 286 285 286
277 277 277 277 278 278 279 279 280 281 282 284 284 283 284 284 283 285 288 290 290 290 290 290 286 286 286
277 277 277 277 278 279 278 279 281 282 283 284 284 283 285 285 287 288 289 291 290 291 291 293 291 288 288
276 276 278 277 278 278 278 280 281 283 284 284 284 284 286 286 286 289 287 290 291 292 291 291 292 294 291

GFSFLT2_925_thetae_042.txt.gz
Theta_e
284 284 284 284 284 284 284 285 285 285 286 286 286 286 287 287 288 289 289 289 290 291 291 292 293 294 295
284 284 284 284 284 285 285 284 284 284 284 284 285 286 286 287 287 288 289 289 289 289 290 291 291 292 293
284 284 284 285 284 283 282 282 282 282 283 283 284 285 286 286 287 287 288 288 288 288 289 289 290 291 292
284 285 285 283 282 282 282 282 282 282 283 283 284 284 284 284 285 285 285 286 286 287 287 288 289 289 290
285 283 282 282 282 282 282 282 283 282 283 283 283 282 282 283 283 283 284 284 285 286 287 287 288 289 289
283 282 282 281 282 282 283 282 283 283 283 283 282 282 282 282 282 283 284 285 286 287 287 288 289 289 290
282 281 281 282 283 282 282 283 283 282 282 282 281 281 281 281 282 283 284 285 286 286 287 288 288 289 289
282 283 284 283 282 282 282 282 282 281 281 281 281 281 281 281 282 283 284 285 286 286 287 288 288 289 289
284 282 281 282 282 282 281 281 281 280 280 280 281 281 281 282 282 283 284 285 286 286 287 288 288 289 290
279 279 279 279 280 280 280 279 280 280 281 281 281 282 282 283 283 283 283 284 285 286 287 288 288 288 288
278 279 279 279 279 279 278 278 279 279 279 281 281 281 281 282 283 284 284 284 284 284 285 286 287 288 288
278 279 279 278 278 278 278 278 278 279 279 279 280 281 282 283 284 284 284 285 285 284 284 285 286 286 287
279 278 278 277 277 277 277 278 278 279 280 281 282 282 283 284 284 284 286 285 285 286 286 286 285 284 285
278 277 277 277 277 277 277 278 279 279 281 282 283 284 284 284 284 285 286 286 289 290 290 290 287 285 285
277 277 277 277 277 277 278 278 278 280 281 283 284 284 284 284 285 285 288 289 289 290 290 290 286 285 285
276 276 276 276 277 278 277 278 279 280 281 284 283 284 285 286 288 288 289 289 289 290 291 291 291 287 286
276 276 277 277 277 277 277 278 279 280 283 283 283 284 285 286 287 289 288 289 290 291 291 291 291 291 288

GFSFLT2_925_thetae_045.txt.gz
Theta_e
285 285 285 285 285 285 285 285 284 284 285 285 286 286 287 288 288 288 289 289 290 290 291 292 292 293 294
284 285 285 285 285 285 284 283 283 283 283 284 285 286 286 287 288 288 288 289 289 289 290 290 291 292 293
285 285 285 285 284 283 283 283 283 283 283 283 284 285 286 286 287 287 287 288 288 289 289 289 290 290 291
285 286 285 284 283 283 283 283 283 283 283 283 284 284 285 285 285 286 286 286 286 287 288 288 288 289 290
285 284 284 283 283 283 283 283 284 283 283 283 284 283 283 284 284 284 284 285 286 286 287 288 288 288 289
284 284 283 283 283 283 284 283 285 283 283 283 283 283 283 283 283 284 285 285 286 286 287 288 289 289 290
283 283 283 283 283 283 283 283 283 283 283 283 282 283 283 282 283 284 284 285 286 287 287 288 288 288 289
282 283 284 283 282 283 282 282 282 282 282 283 282 282 282 283 283 284 285 285 286 287 288 288 288 289 289
283 283 281 282 282 282 282 281 282 281 281 281 282 282 282 283 283 284 285 285 286 287 288 288 289 289 290
281 280 280 280 280 280 280 280 280 281 282 281 281 282 283 283 284 284 284 285 286 287 288 288 289 289 289
279 280 280 280 280 279 279 278 279 279 279 280 281 281 281 283 284 284 284 285 286 286 287 287 288 288 288
279 280 280 279 278 278 278 277 277 278 278 278 279 280 282 284 285 285 286 286 287 287 287 288 288 288 288
279 279 278 278 277 277 278 278 278 278 279 280 280 281 282 284 286 286 287 287 287 288 289 290 289 288 286
278 278 278 278 278 278 277 278 279 279 280 281 282 283 285 285 286 286 287 289 289 290 290 290 290 287 286
277 277 277 277 277 277 278 279 279 280 280 282 283 284 284 285 287 288 289 290 290 290 290 290 291 287 286
276 277 277 277 277 278 278 278 279 280 281 282 284 284 286 287 288 289 289 289 289 290 291 291 292 287 286
276 276 277 278 277 278 278 279 280 281 283 284 283 285 286 288 288 288 288 289 289 290 290 291 291 289 287

GFSFLT2_925_thetae_048.txt.gz
Theta_e
287 286 286 286 287 286 286 286 286 285 285 286 286 287 287 288 289 289 290 290 291 291 292 292 293 293 294
286 286 286 287 287 286 286 285 285 285 285 286 286 287 287 288 288 289 289 289 290 290 291 291 292 292 293
287 287 287 287 287 285 285 285 285 285 285 285 286 286 287 287 287 288 288 288 289 289 289 289 290 291 291
287 287 288 286 285 285 285 285 285 285 285 285 286 286 286 286 286 287 287 287 287 288 288 288 289 289 290
288 287 286 286 285 285 285 285 285 285 285 285 285 285 285 286 286 286 286 286 287 287 288 288 289 289 289
286 286 285 284 284 285 285 285 286 285 285 285 285 285 285 285 285 286 286 286 287 288 288 289 289 289 290
284 284 284 284 284 285 284 284 284 284 284 285 284 285 285 285 285 286 286 287 288 288 288 289 289 290 290
283 283 284 284 284 283 283 283 284 284 284 285 284 284 285 285 285 285 286 287 287 288 288 289 290 290 291
284 284 284 283 283 283 283 283 283 283 282 283 284 284 283 284 285 286 287 287 287 288 289 289 290 290 290
284 282 282 282 282 282 282 282 282 283 283 283 283 283 284 284 285 284 286 287 287 288 289 289 290 290 290
282 282 282 283 283 282 281 281 281 281 281 281 281 281 282 284 284 285 285 288 288 289 289 289 290 291 291
281 281 282 281 281 280 280 279 279 279 279 279 280 281 282 284 285 285 286 288 289 289 289 289 290 290 291
281 281 281 280 280 280 280 280 280 280 281 281 281 282 282 284 285 286 288 288 289 290 290 290 290 290 290
280 280 280 280 280 280 280 280 281 281 282 282 283 283 284 285 286 287 287 289 290 290 289 290 291 290 290
279 279 279 280 280 280 280 281 281 282 282 283 284 285 285 285 287 288 289 290 290 290 289 291 291 291 288
278 279 279 279 280 280 280 281 282 282 283 284 285 286 287 288 289 290 289 289 289 290 290 291 291 290 287
278 278 279 280 279 280 281 282 282 283 284 285 285 287 288 289 289 289 289 289 289 290 290 290 291 291 289

GFSFLT2_925_thetae_051.txt.gz
Theta_e
288 287 287 287 287 287 288 287 287 286 286 287 288 288 289 289 289 289 290 291 291 292 293 293 294 294 295
287 287 287 287 287 288 288 286 286 286 286 287 288 288 288 288 289 289 289 290 290 290 291 292 292 293 293
287 287 287 287 288 287 286 286 286 286 286 286 287 287 288 288 288 289 289 289 289 289 290 290 291 291 292
286 287 287 287 286 286 286 285 285 285 286 285 286 286 287 287 287 288 288 288 288 289 289 289 290 290 290
287 288 286 286 286 285 285 285 285 286 285 285 286 285 285 286 286 286 287 288 288 289 289 290 290 290 291
287 286 286 285 285 285 284 285 285 284 285 284 284 285 285 285 286 287 287 288 288 289 289 290 290 291 291
286 285 285 284 284 284 285 285 284 284 284 285 285 285 285 285 285 287 287 288 288 289 289 290 290 290 291
285 284 284 285 285 285 284 284 284 284 284 284 284 283 284 285 284 285 286 288 288 289 289 290 290 290 291
284 284 285 285 284 284 284 284 284 283 283 283 283 284 283 283 284 285 286 287 287 288 289 290 291 291 291
284 283 283 283 283 283 284 284 283 282 282 283 283 282 282 283 284 283 284 285 287 288 290 290 290 291 290
282 282 282 282 282 283 282 282 282 281 281 281 281 281 281 281 282 283 283 285 286 287 289 290 290 291 291
282 281 281 282 282 281 281 280 280 281 281 281 281 281 281 282 282 283 284 285 287 288 289 290 290 290 291
282 282 281 281 280 281 281 281 281 281 281 281 282 282 283 283 283 284 286 286 287 288 289 290 289 289 290
281 281 280 280 280 280 281 281 281 282 282 282 283 283 284 285 285 286 287 287 288 289 289 289 290 290 291
280 280 279 280 280 280 281 281 282 282 282 283 283 284 285 286 287 287 287 289 290 289 289 289 290 290 291
279 279 279 280 280 281 281 281 282 282 283 283 284 285 285 287 288 289 288 289 289 289 289 290 290 290 290
279 279 279 280 280 280 280 281 282 282 283 284 284 285 286 286 287 287 288 287 288 289 289 289 290 290 290

GFSFLT2_925_thetae_054.txt.gz
Theta_e
286 287 287 286 286 286 286 287 288 287 287 288 288 289 289 289 290 290 290 291 291 292 292 293 294 294 295
286 286 286 285 286 286 287 286 286 286 286 287 287 288 288 289 289 289 290 290 290 291 291 291 292 292 293
285 285 285 285 286 287 285 285 285 285 285 285 286 287 287 288 288 289 289 289 289 290 290 290 291 291 292
285 285 286 286 286 285 285 284 284 284 284 285 286 285 286 286 286 287 287 288 288 289 289 290 291 291 291
286 286 286 286 285 284 284 283 284 284 285 284 284 284 283 284 285 285 286 288 288 289 290 290 291 291 291
286 286 285 284 284 283 283 284 285 285 284 283 283 283 284 284 284 285 286 287 288 289 289 290 291 291 291
286 284 284 284 284 284 284 285 284 284 283 283 283 283 283 283 283 285 286 287 288 289 289 290 291 291 292
284 284 284 284 285 285 285 284 284 283 283 283 283 282 282 283 283 284 285 286 288 288 288 289 290 291 291
283 284 284 284 284 283 283 283 283 283 282 282 282 282 281 281 282 283 284 285 285 286 288 289 290 291 291
283 282 282 282 282 282 282 283 282 282 282 281 281 281 281 281 282 281 282 282 284 285 287 288 289 290 291
281 281 281 281 281 281 281 281 281 281 281 281 281 281 281 280 281 281 282 283 283 284 286 287 289 290 290
281 281 281 281 281 280 280 280 280 281 281 281 281 281 281 281 281 282 283 283 284 285 286 287 288 289 290
281 281 280 280 280 280 280 280 280 280 280 281 281 281 281 282 282 283 284 285 285 286 287 288 289 289 289
280 280 280 280 279 279 280 280 280 280 281 281 282 282 282 283 284 284 285 286 286 287 288 289 289 289 289
279 279 279 279 279 279 279 280 280 280 281 282 282 283 283 284 284 285 285 287 287 288 288 288 289 289 289
279 279 279 279 279 279 280 279 280 280 281 282 282 283 284 284 285 286 286 286 287 287 287 289 289 288 289
278 278 278 279 279 278 279 279 280 280 281 282 284 284 285 285 285 286 286 286 287 287 288 289 288 288 289

GFSFLT2_925_thetae_057.txt.gz
Theta_e
285 286 285 285 285 285 285 286 286 286 286 287 288 288 289 289 289 290 290 291 292 292 293 294 294 294 295
285 285 285 285 285 285 285 286 285 285 285 286 287 287 288 288 289 289 289 290 290 290 290 291 292 293 294
285 285 285 285 285 285 286 285 284 284 284 285 285 286 287 287 288 288 288 288 288 289 289 290 290 291 292
285 285 285 285 285 285 284 284 283 283 283 284 285 285 285 285 286 286 286 287 287 288 289 290 291 291 292
285 285 285 285 284 284 283 283 283 283 284 285 284 283 283 283 284 284 285 287 287 288 289 290 291 291 292
285 285 285 284 283 283 283 283 284 285 284 283 283 283 283 283 283 284 285 286 287 288 288 289 290 291 291
285 284 283 283 283 283 284 285 284 284 283 283 283 283 283 282 282 284 285 286 286 287 288 289 290 290 291
284 284 284 284 285 284 284 283 282 282 282 282 282 282 281 281 282 283 284 285 286 286 287 288 288 289 290
284 284 284 284 283 283 282 281 281 282 282 281 281 281 281 281 282 282 283 283 284 285 286 287 288 289 290
283 282 281 281 281 281 281 281 281 281 281 281 281 281 281 281 281 281 281 281 283 284 285 286 287 288 289
280 280 280 281 281 281 280 280 280 280 280 281 281 281 281 281 281 281 281 282 282 283 284 285 287 288 289
280 280 280 280 280 280 280 279 279 279 280 280 280 280 281 280 280 281 282 282 283 284 284 285 287 288 289
279 280 279 279 279 279 279 279 279 279 279 280 280 280 280 281 281 281 283 283 283 284 286 286 286 287 288
279 279 278 278 279 279 278 278 278 279 280 280 280 281 281 281 282 283 283 283 284 284 285 286 287 287 288
278 278 278 278 278 278 278 278 279 279 279 280 280 280 281 281 282 283 283 284 284 285 286 286 287 287 287
277 277 278 278 278 278 279 278 278 279 279 279 280 280 282 283 284 283 284 285 285 285 286 286 287 287 288
277 277 278 278 279 278 278 278 279 279 279 280 281 282 282 283 284 285 285 285 285 285 286 287 288 288 288

GFSFLT2_925_thetae_060.txt.gz
Theta_e
285 286 286 286 285 285 285 284 285 285 286 287 287 288 288 289 289 290 290 291 291 292 292 293 294 295 295
285 285 285 285 285 285 285 284 285 285 285 286 286 287 287 288 288 289 289 289 290 290 290 291 292 293 294
285 285 285 285 285 284 284 284 284 284 284 284 285 286 287 288 288 288 288 288 288 288 289 289 290 291 292
285 285 285 285 285 284 283 283 283 283 283 284 285 286 285 285 286 286 286 286 287 287 288 289 290 291 291
284 284 284 284 284 283 283 283 283 283 284 284 284 283 283 283 283 284 284 286 287 287 288 288 289 290 291
286 285 285 284 283 283 283 282 283 284 284 283 283 282 282 282 283 284 285 285 286 287 287 288 289 290 291
285 284 284 283 283 283 283 283 284 283 282 282 281 281 282 282 282 283 284 285 286 286 287 288 289 289 289
285 284 284 284 284 284 283 283 282 281 281 281 281 281 281 281 281 283 284 285 285 286 286 287 287 288 289
284 284 284 284 283 283 282 281 280 281 281 281 281 281 281 281 282 282 283 284 284 284 285 286 287 287 288
283 282 281 281 281 281 281 280 280 280 281 281 281 280 281 281 281 281 281 281 282 283 284 285 286 287 287
280 280 280 280 280 280 280 279 279 279 280 280 280 280 280 280 280 280 281 281 281 281 282 283 285 286 287
279 279 279 279 279 279 279 279 279 279 279 278 278 279 279 279 280 280 281 281 281 282 282 283 285 286 287
279 279 278 278 278 278 278 278 278 279 279 279 278 279 279 279 279 280 281 281 282 282 283 284 284 284 286
278 278 278 278 278 278 277 278 278 278 279 279 279 279 279 279 279 280 281 282 282 282 283 283 284 285 286
277 277 277 277 277 278 277 278 278 278 278 279 279 279 279 279 279 280 281 282 282 283 283 284 285 285 286
276 276 277 277 277 278 279 278 278 278 278 278 279 279 279 281 281 281 282 282 283 284 284 285 285 286 286
276 276 277 278 278 277 278 278 278 279 279 279 279 280 281 281 282 283 284 284 285 285 284 285 285 286 287

GFSFLT2_925_thetae_063.txt.gz
Theta_e
286 286 286 286 286 286 285 284 284 284 285 287 287 288 288 289 289 289 290 291 291 292 292 293 294 294 295
285 285 286 286 286 286 285 284 284 283 285 286 287 287 287 288 288 289 290 290 290 290 290 291 291 292 292
284 285 285 286 286 285 284 284 283 283 284 284 285 286 287 288 288 288 288 288 288 288 289 289 290 290 291
285 285 285 285 285 284 283 283 282 283 283 283 284 285 285 285 286 286 286 286 287 287 288 288 289 290 291
284 285 284 285 284 283 283 282 282 283 283 283 284 283 282 283 283 284 284 285 287 287 288 288 289 289 290
286 286 285 284 283 283 283 282 283 283 283 283 282 282 282 282 282 284 285 286 286 287 287 288 288 289 290
285 284 284 284 284 283 283 283 283 283 282 282 281 281 282 281 282 283 284 285 286 286 287 287 288 288 289
284 284 284 284 285 284 283 282 282 281 281 281 281 281 281 281 282 283 284 285 285 286 286 286 286 287 287
284 284 284 283 283 282 281 281 280 280 280 280 280 280 280 280 282 282 283 284 284 284 285 285 286 286 287
283 282 281 281 281 280 280 280 280 280 281 280 280 280 280 281 281 281 281 281 282 283 284 284 285 285 285
280 280 281 281 280 279 279 278 279 279 279 280 280 279 279 279 280 280 279 280 280 280 281 282 283 284 285
279 279 279 279 279 279 279 279 278 278 279 278 278 278 278 278 278 279 280 280 280 280 281 281 283 284 286
278 278 278 278 278 279 279 278 278 278 279 279 278 278 278 278 278 279 280 280 280 280 281 282 282 282 282
278 277 277 278 277 278 277 277 277 278 279 279 279 279 278 278 278 279 279 279 280 280 281 281 282 282 282
276 276 276 277 277 278 277 277 277 278 278 279 279 279 278 278 278 279 279 279 280 280 281 282 283 283 283
275 276 276 276 277 278 278 277 277 278 278 279 279 278 279 279 279 279 280 280 281 281 282 283 284 285 285
276 277 277 277 278 276 277 277 278 279 279 279 279 280 281 281 282 282 282 282 283 284 284 284 284 284 284

GFSFLT2_925_thetae_066.txt.gz
Theta_e
286 286 286 286 286 286 286 285 285 284 285 286 287 288 288 289 289 290 290 291 292 292 293 293 294 294 295
285 285 286 286 286 286 285 285 284 283 284 286 286 286 287 288 288 289 290 290 291 291 290 291 291 292 293
284 285 285 286 285 285 285 284 283 283 284 284 285 285 286 287 288 288 288 288 288 288 289 289 290 290 291
285 285 285 285 285 284 283 283 283 283 284 283 284 284 285 285 285 286 286 286 287 287 288 288 289 289 290
285 284 284 285 284 284 283 282 282 283 283 283 283 282 282 283 283 283 284 285 286 287 288 288 289 289 290
286 285 285 284 283 283 283 283 283 283 283 282 282 282 282 282 282 283 285 285 286 287 287 288 288 289 289
285 284 283 283 283 283 283 283 283 283 282 281 281 281 281 282 282 283 284 285 286 286 287 287 288 288 289
284 283 283 284 284 283 283 282 281 281 281 280 281 281 281 281 281 282 284 285 285 286 286 286 287 288 287
283 283 283 283 282 282 281 280 279 280 280 280 280 280 280 280 281 282 283 284 284 284 284 285 286 286 286
282 282 281 282 282 281 280 279 279 279 281 280 280 279 279 280 280 280 280 281 281 282 283 284 284 285 285
280 281 281 281 281 280 279 278 278 278 279 279 279 279 279 279 279 279 279 279 280 280 280 281 282 283 283
279 279 279 279 280 280 280 280 278 277 279 278 277 278 278 278 278 279 279 279 279 279 280 280 281 283 284
278 278 278 279 279 280 281 280 279 280 280 279 278 278 277 278 278 278 279 280 279 279 280 280 281 281 280
277 277 278 278 278 278 277 278 276 279 279 279 279 279 278 278 278 278 278 279 280 280 279 279 280 281 281
276 276 277 277 278 278 278 277 277 277 277 279 279 279 279 278 278 279 279 279 279 279 279 280 281 281 282
276 276 276 276 276 278 278 276 277 277 278 279 279 279 280 280 280 279 279 279 280 281 281 281 282 282 283
276 277 276 277 278 277 277 277 278 278 279 280 281 282 282 282 283 284 283 283 283 283 283 283 283 284 284

GFSFLT2_925_thetae_069.txt.gz
Theta_e
287 287 286 286 286 286 286 286 285 285 285 286 287 288 288 289 289 289 290 291 291 292 293 294 294 295 295
286 285 286 286 286 286 285 285 285 284 285 286 287 287 287 288 288 289 290 290 290 291 291 291 292 292 293
285 285 285 286 286 285 284 284 284 283 284 284 285 286 286 287 287 288 288 288 288 289 289 289 290 290 291
286 286 285 286 285 284 285 284 284 284 284 284 284 285 285 285 285 286 286 286 287 287 288 288 289 289 290
287 287 286 286 285 284 284 284 284 284 284 284 284 284 284 284 284 284 284 285 286 287 288 289 289 290 290
286 286 286 284 284 284 284 284 284 284 284 284 283 283 283 283 283 284 285 285 286 287 287 288 289 289 289
285 284 284 283 283 284 284 284 283 283 283 283 283 283 283 282 282 283 284 285 286 286 287 287 288 289 289
283 283 283 284 284 284 283 283 282 282 282 282 283 282 282 282 282 282 283 284 285 285 286 286 287 287 287
283 283 283 283 282 283 282 282 281 282 281 281 282 282 281 281 282 282 282 283 284 284 284 285 285 286 286
282 282 282 282 282 281 280 280 280 280 282 281 281 281 281 282 282 282 281 281 282 282 283 284 284 284 284
280 280 281 281 281 280 280 279 278 279 280 280 280 280 279 280 281 281 280 280 281 281 281 281 282 283 283
279 280 280 280 281 281 281 280 279 278 280 278 277 278 278 279 280 280 281 281 280 281 281 281 282 282 283
279 279 279 279 281 282 281 281 280 280 280 279 278 277 278 278 279 279 280 281 280 280 281 281 281 281 281
278 278 278 278 279 279 278 279 277 280 280 280 279 279 278 278 279 279 280 281 281 281 281 281 281 281 281
277 277 277 277 278 278 278 277 278 279 279 281 280 279 279 279 279 280 281 281 281 281 281 281 281 281 282
276 276 276 276 277 278 279 278 278 279 280 280 280 281 282 283 282 281 281 282 283 283 283 282 283 283 283
276 276 276 276 277 277 278 279 279 280 281 281 283 283 284 284 284 285 285 285 285 285 285 285 285 285 285

GFSFLT2_925_thetae_072.txt.gz
Theta_e
291 289 288 287 287 288 287 287 287 287 287 287 287 288 289 289 290 290 290 291 291 292 293 293 294 295 296
288 287 287 287 287 287 287 286 286 286 286 287 287 288 288 288 289 289 290 290 290 290 291 291 292 292 293
287 288 287 286 287 287 287 286 286 285 286 286 286 287 287 288 288 288 288 289 289 289 289 289 290 290 291
288 288 288 288 288 287 287 286 286 286 286 286 286 286 286 287 287 287 287 287 287 288 288 288 289 289 290
289 289 288 288 287 286 285 285 286 286 286 286 286 286 286 286 286 286 286 286 287 287 288 288 289 289 290
288 288 288 287 285 285 285 286 286 285 286 286 286 286 286 286 286 286 286 286 286 287 287 288 288 289 289
287 286 285 284 285 285 285 285 285 285 285 285 285 285 286 285 285 285 285 286 286 286 287 287 287 288 289
284 284 284 285 285 285 285 285 285 285 285 285 285 285 285 285 285 285 285 285 286 286 286 286 287 287 287
283 284 284 284 283 283 284 285 284 284 284 284 285 285 284 284 284 284 284 284 284 285 285 285 286 286 286
284 283 283 283 282 282 283 283 282 283 285 283 283 283 283 283 284 284 284 284 284 284 284 284 285 284 284
282 283 283 283 283 283 282 282 281 281 282 282 282 281 281 282 282 283 283 283 284 284 284 284 284 284 284
282 283 283 283 283 282 281 281 280 280 281 280 279 279 280 280 281 282 283 283 283 283 284 284 284 284 284
283 283 282 281 280 281 282 281 280 281 281 281 279 279 279 279 281 281 282 283 282 283 283 283 283 283 283
281 281 281 281 281 281 281 280 280 281 282 282 281 280 280 280 281 281 282 283 283 283 284 284 283 283 283
280 280 280 281 281 281 280 280 281 282 282 283 283 282 282 281 282 282 282 283 284 284 284 284 284 284 284
279 279 279 280 280 280 281 282 282 282 282 283 283 283 284 285 284 284 284 285 286 286 286 286 286 286 286
278 278 278 279 280 280 281 282 282 283 283 283 284 285 285 286 286 286 286 286 286 286 286 287 287 287 287

GFSFLT2_925_thetae_075.txt.gz
Theta_e
291 293 293 292 288 288 288 288 288 288 289 289 289 289 289 290 290 291 291 291 292 292 293 293 294 295 295
290 289 288 288 288 287 287 288 288 287 288 288 288 289 289 289 290 290 290 291 291 291 291 291 292 292 293
288 288 288 288 288 288 288 288 287 287 287 287 288 288 289 289 289 289 290 290 290 290 290 290 290 291 291
289 289 289 289 289 289 288 287 286 286 287 287 288 288 288 288 289 289 288 288 288 288 289 289 289 289 290
289 290 290 289 289 288 286 286 286 286 286 286 287 286 287 287 287 287 288 288 288 288 288 288 289 289 289
289 288 289 288 287 286 285 285 285 286 285 286 286 286 286 286 286 287 288 288 288 288 288 288 288 288 288
288 287 286 286 285 284 285 286 285 286 285 286 286 286 286 286 286 287 287 288 287 288 288 288 288 288 288
286 285 284 284 285 285 285 285 285 285 286 286 285 286 285 286 286 286 287 287 287 287 287 287 287 287 287
283 284 285 285 285 284 284 285 285 284 284 284 285 285 284 284 284 285 286 286 286 286 287 287 287 287 286
284 284 284 284 284 284 283 283 283 283 285 284 284 283 284 283 283 283 283 284 285 285 285 286 286 286 285
283 283 284 284 284 284 284 283 283 282 282 283 283 282 282 282 282 282 282 283 284 284 284 285 285 286 285
283 284 284 284 283 283 282 281 281 281 282 281 280 280 280 280 280 281 282 282 282 283 284 284 284 285 285
283 283 283 282 281 281 282 282 282 282 282 282 281 281 280 280 280 280 281 281 282 283 284 284 284 284 284
282 282 281 281 281 282 282 281 281 281 282 282 283 283 282 282 281 282 282 282 282 283 283 284 284 285 284
281 281 280 281 281 281 281 281 282 282 282 282 283 283 284 283 283 283 283 283 284 284 284 285 286 286 286
279 279 279 279 280 280 281 282 282 282 283 283 283 284 285 285 285 285 285 285 286 286 286 286 286 286 286
279 279 279 279 280 280 281 282 282 282 283 283 284 285 285 285 285 286 286 286 286 286 286 286 286 287 287

GFSFLT2_925_thetae_078.txt.gz
Theta_e
292 292 291 292 293 289 288 288 288 288 289 290 290 290 290 290 291 291 292 292 292 293 293 294 294 295 295
292 292 290 288 288 288 288 288 288 288 289 289 289 289 290 290 291 291 291 291 291 291 292 292 292 292 293
288 288 288 288 288 288 289 288 288 287 287 287 288 289 289 290 290 290 290 290 290 290 290 290 290 291 291
289 289 289 289 289 289 289 287 286 286 286 286 287 288 288 288 288 289 288 289 289 289 290 290 290 290 290
288 289 289 288 288 287 286 285 285 284 286 286 286 286 286 286 286 287 287 288 289 289 289 289 289 289 290
288 288 288 287 286 285 285 284 285 285 285 285 285 285 286 286 286 287 288 288 289 289 289 289 289 289 289
288 287 286 285 284 284 285 285 285 285 285 285 285 285 285 285 286 286 287 288 288 289 289 288 288 288 289
286 285 284 284 284 284 285 285 284 284 284 284 285 285 285 285 284 285 286 287 287 287 288 288 288 288 288
284 285 285 286 286 285 285 283 283 283 283 283 284 284 283 284 284 284 285 285 285 286 287 287 287 287 287
284 284 283 283 284 284 284 283 283 283 284 283 283 282 282 283 283 282 283 283 283 284 285 286 286 286 286
283 283 283 284 284 284 284 283 283 283 283 283 282 282 281 281 281 281 281 282 281 282 282 283 284 286 286
282 283 283 283 282 282 281 282 282 282 282 281 281 281 281 281 281 281 281 281 282 282 282 283 283 284 285
282 282 282 281 281 281 281 281 282 281 281 281 281 281 281 281 281 281 282 282 282 283 283 283 283 284 284
281 281 280 280 281 281 281 281 281 281 282 282 282 282 282 282 282 282 282 282 283 283 283 283 284 284 284
281 280 280 280 280 280 280 281 281 282 282 282 282 283 283 283 283 284 284 284 284 284 284 284 285 285 286
279 279 279 279 279 280 280 280 281 282 282 282 283 283 284 284 284 284 284 284 285 285 285 285 285 286 286
279 279 279 279 280 279 279 280 281 282 282 283 283 283 283 283 284 284 285 285 285 285 285 285 286 286 286

GFSFLT2_925_thetae_081.txt.gz
Theta_e
294 294 294 293 291 291 291 290 288 288 289 290 291 291 291 291 291 292 292 293 293 293 294 294 295 295 296
292 291 292 291 289 288 288 288 288 288 289 290 289 289 290 290 291 291 292 292 292 292 292 292 292 293 293
289 288 288 288 288 288 289 289 288 288 287 287 287 288 289 290 291 290 290 290 291 291 291 291 291 291 292
288 288 288 289 289 289 288 287 286 286 285 285 287 287 287 287 288 287 288 288 289 290 290 290 290 291 291
288 289 289 288 288 286 286 285 285 284 285 285 285 286 286 286 286 286 287 289 289 290 290 290 290 290 290
288 288 288 286 286 285 284 284 284 285 285 284 285 286 286 285 286 287 287 288 289 289 289 289 290 290 290
288 287 286 285 284 284 284 284 284 284 284 284 285 285 285 285 285 286 287 287 288 288 289 289 289 289 289
286 285 284 284 284 285 285 285 284 283 283 283 284 284 284 285 285 285 286 286 286 286 287 287 288 288 289
284 285 285 285 286 285 284 284 283 283 283 283 283 283 283 284 283 283 283 284 284 285 285 286 286 287 287
283 283 283 283 284 284 284 284 283 283 283 283 283 282 282 282 282 282 282 282 282 283 283 284 285 285 285
282 283 283 283 283 283 283 282 282 282 282 282 282 282 281 281 281 281 281 282 282 283 283 283 284 285 285
282 282 282 282 282 281 281 281 281 281 282 281 281 281 281 281 281 282 282 282 282 283 283 283 283 284 284
281 281 281 280 280 280 281 281 281 281 281 281 282 282 282 281 282 282 282 282 282 283 283 282 283 282 282
281 281 280 280 280 280 280 280 280 281 281 282 282 282 282 282 282 282 282 283 283 283 283 284 284 284 284
280 280 280 280 280 280 280 280 279 280 281 282 282 282 282 282 282 283 283 283 283 284 284 284 285 285 285
279 279 280 280 280 280 280 279 279 279 281 282 282 282 282 282 283 283 283 283 284 284 284 284 285 285 285
279 279 279 279 280 279 279 279 278 279 280 281 281 281 282 281 282 283 283 283 284 284 285 285 285 285 285

GFSFLT2_925_thetae_084.txt.gz
Theta_e
295 294 294 294 294 294 292 292 291 289 290 291 291 291 292 292 292 292 293 293 293 294 294 295 296 296 296
293 292 292 292 292 290 289 288 288 288 289 290 290 289 290 290 291 291 292 292 292 292 293 293 293 294 294
290 291 289 288 288 288 289 289 288 288 287 287 286 287 289 290 290 290 291 290 290 290 291 291 291 292 292
288 288 288 289 289 288 288 287 286 286 285 285 286 286 286 287 288 288 287 288 289 289 290 291 291 291 291
288 288 289 288 287 286 285 285 284 284 285 285 285 286 286 286 286 286 287 288 289 289 290 290 291 291 291
288 287 287 287 286 285 284 284 284 285 284 285 285 286 286 286 285 286 287 287 288 289 289 289 290 290 290
288 287 287 286 284 284 283 284 284 284 283 284 285 285 285 285 285 285 286 287 287 287 288 288 289 289 289
286 285 284 284 285 285 285 285 284 284 283 283 284 284 284 284 284 285 286 285 285 285 286 287 287 287 288
284 284 285 285 285 285 285 284 283 283 283 282 283 283 282 283 284 284 283 283 283 284 285 285 285 286 286
282 283 283 283 284 284 284 283 283 282 283 282 283 282 281 282 283 282 282 283 283 283 283 284 285 285 284
282 282 283 283 283 283 282 282 281 282 282 282 282 282 281 281 281 282 282 282 282 283 283 283 284 284 284
282 282 282 282 281 280 281 280 281 281 281 281 281 281 281 281 281 282 281 282 282 282 283 283 283 284 283
281 281 281 280 280 280 280 280 281 281 281 281 281 281 281 281 281 281 282 282 282 283 283 283 284 283 283
281 281 280 280 279 280 279 279 280 280 281 281 282 282 282 281 281 281 282 282 282 283 283 283 283 284 284
280 280 279 279 279 279 280 280 279 278 279 282 282 282 281 281 281 281 282 282 282 283 283 283 283 284 284
279 279 279 279 279 280 280 279 279 278 279 280 281 280 280 281 282 281 282 282 283 283 283 283 284 284 285
278 278 279 279 279 279 279 278 278 278 279 279 280 279 280 280 281 282 282 283 282 283 283 284 284 285 285

GFSFLT2_925_thetae_087.txt.gz
Theta_e
296 295 295 295 295 295 294 293 292 291 291 291 292 292 292 292 292 292 292 293 294 294 294 295 296 296 297
293 293 294 293 293 292 290 288 288 288 289 290 291 291 290 290 290 291 292 292 293 292 292 293 294 294 295
292 292 290 289 288 288 288 289 288 288 288 287 287 287 288 289 290 290 290 290 290 290 290 291 291 292 293
289 288 288 288 289 288 288 287 286 286 286 284 285 285 285 286 287 287 287 288 289 289 290 291 291 291 292
288 288 288 288 287 286 285 285 284 283 285 285 285 285 286 286 286 286 286 288 289 289 290 290 291 291 291
288 287 287 287 286 285 284 283 283 284 284 285 285 286 285 286 285 286 286 287 288 289 289 289 289 290 290
287 287 286 286 285 284 283 283 284 285 284 284 285 286 285 286 285 285 286 287 287 287 287 287 288 288 289
286 285 284 284 284 285 285 285 285 284 283 282 284 284 285 285 284 285 286 285 285 285 286 286 287 287 287
284 284 285 285 285 285 285 284 283 283 283 282 283 282 283 283 283 284 284 284 284 284 285 285 286 286 286
282 282 283 283 283 283 283 283 283 282 282 282 282 281 281 282 283 284 283 283 283 283 284 284 285 285 284
281 282 282 283 283 282 282 281 281 281 282 282 282 281 281 281 281 281 282 282 282 283 283 283 283 284 284
281 282 282 282 281 280 280 280 280 281 281 281 281 281 280 280 281 281 281 281 282 282 283 283 283 284 284
281 281 281 281 280 280 280 280 280 280 280 280 280 280 280 279 280 280 281 281 281 282 283 283 283 283 283
281 281 280 279 279 279 279 279 279 280 280 281 281 280 280 280 280 280 281 281 282 281 282 283 283 283 283
280 280 280 279 279 279 279 280 279 279 278 281 281 280 280 280 279 280 280 281 281 282 282 282 282 283 283
280 279 279 279 279 279 280 279 279 278 279 280 280 279 279 281 281 282 282 282 282 282 282 281 282 283 283
279 279 278 278 279 279 279 279 278 278 279 279 279 278 278 279 280 281 281 282 282 281 282 282 283 283 283

GFSFLT2_925_thetae_090.txt.gz
Theta_e
297 296 296 296 296 296 296 296 295 294 294 292 292 292 293 293 292 292 292 292 293 294 294 295 296 296 297
295 294 294 294 294 293 293 291 289 288 289 290 291 291 290 290 290 290 291 291 292 292 293 293 293 293 294
293 292 291 290 289 289 288 288 288 288 288 288 287 287 287 288 289 290 290 290 290 291 291 291 291 292 293
291 289 289 288 288 288 288 287 287 286 286 285 284 284 285 286 286 287 287 287 288 289 290 291 291 291 292
288 288 288 288 287 286 285 285 284 283 283 284 285 285 285 286 286 286 286 287 289 289 290 290 290 290 291
288 288 287 286 285 285 284 283 282 283 284 285 285 286 285 285 285 285 286 287 288 289 289 289 289 289 289
287 286 286 286 285 284 283 283 284 285 284 284 285 285 285 285 285 285 285 287 287 286 287 287 288 288 288
286 285 284 283 284 284 284 284 284 284 283 283 284 284 285 284 284 284 286 286 285 285 286 286 287 287 287
284 284 285 285 285 285 284 284 283 283 283 282 282 282 284 283 284 284 285 284 284 284 285 285 286 286 286
282 282 282 284 283 283 283 283 283 282 282 282 282 281 281 283 283 284 284 284 284 283 283 284 284 284 284
281 281 282 282 282 282 281 281 281 281 281 282 282 281 281 281 281 282 282 283 283 283 283 283 283 284 284
281 282 282 282 281 281 280 280 280 280 281 281 281 281 281 280 280 281 281 281 282 282 283 283 283 283 283
281 281 281 280 280 279 279 279 279 280 280 280 280 280 280 279 279 279 280 281 282 283 283 282 283 283 283
281 281 280 280 279 279 279 279 279 280 280 280 280 280 279 279 279 278 279 280 282 282 282 282 283 282 282
280 280 280 279 279 279 279 279 280 279 279 281 280 280 279 279 278 280 281 281 282 282 282 282 282 282 282
280 280 279 279 279 279 279 279 279 278 279 279 279 279 279 280 281 281 281 281 282 282 281 281 281 283 282
279 279 279 278 279 278 278 278 277 278 278 279 279 278 276 277 279 281 281 281 281 281 280 281 281 282 283

GFSFLT2_925_thetae_093.txt.gz
Theta_e
300 298 298 297 297 297 296 297 297 296 296 295 294 293 293 293 293 293 293 293 293 294 294 295 295 295 296
297 296 295 296 296 295 294 294 292 291 291 290 291 291 291 290 290 290 291 291 292 292 293 293 293 294 294
293 293 292 292 291 290 289 289 289 289 289 289 288 288 288 287 287 290 290 290 291 291 291 291 291 292 293
292 290 290 289 289 289 288 288 287 287 286 286 285 284 284 284 286 286 287 287 288 289 290 291 291 292 292
290 289 288 288 288 287 286 286 285 284 283 284 285 285 285 286 286 286 286 286 288 289 290 290 290 290 291
287 289 287 286 286 285 284 285 285 283 284 285 285 285 285 286 286 286 286 286 287 289 289 289 289 289 289
287 286 286 286 285 284 283 283 284 284 284 285 285 285 285 286 286 286 285 287 287 287 287 287 288 288 288
286 285 284 284 283 284 284 284 284 283 283 285 283 284 285 285 284 285 286 287 286 286 286 287 287 287 287
284 285 285 285 285 285 284 284 284 283 283 283 283 283 283 283 283 285 286 286 285 284 285 285 285 286 286
282 282 282 284 283 283 283 283 283 284 282 282 282 282 284 283 283 283 284 284 284 285 284 284 284 285 285
282 281 281 282 282 282 282 282 282 282 282 282 281 282 282 282 282 284 283 284 284 284 284 283 283 284 285
281 281 282 282 282 281 281 280 280 280 280 280 281 281 282 282 282 282 282 281 282 283 283 284 283 283 283
281 281 281 281 280 280 280 280 280 279 279 280 280 280 280 280 281 281 281 282 281 282 283 282 282 283 283
281 281 281 280 280 280 280 280 280 280 280 280 279 279 279 279 279 279 280 280 282 282 281 281 282 282 282
281 281 281 280 280 280 279 279 280 280 280 280 280 279 280 280 278 279 280 280 281 281 281 281 282 282 282
281 280 280 280 280 279 279 279 280 279 278 278 278 278 279 281 281 282 281 280 281 281 281 281 281 282 282
280 280 279 279 279 279 279 279 279 279 278 277 277 276 279 280 280 280 280 281 281 280 281 281 281 282 282

GFSFLT2_925_thetae_096.txt.gz
Theta_e
300 300 299 298 297 297 297 297 297 298 298 297 296 295 294 294 294 294 293 293 293 294 295 295 295 295 296
297 296 296 298 296 296 295 293 292 293 294 292 292 292 292 292 291 290 291 291 292 292 293 293 294 294 294
297 295 294 294 293 292 291 291 290 290 290 289 289 289 289 288 288 287 289 291 291 291 291 292 292 292 293
297 295 294 291 291 292 292 290 290 288 287 287 287 286 285 285 285 285 287 287 288 289 290 291 292 292 292
296 294 293 292 292 290 290 289 288 286 286 286 286 287 287 287 286 286 286 286 288 290 290 290 291 291 291
293 294 292 291 289 288 288 288 288 285 286 287 287 288 287 287 287 286 286 287 288 288 289 289 289 289 290
289 289 289 288 288 287 286 286 287 287 286 288 287 287 287 286 286 286 286 286 287 288 287 288 288 288 289
288 288 287 286 285 285 285 286 286 286 285 287 287 287 287 287 285 285 286 288 288 287 287 287 287 287 287
285 285 284 284 285 285 286 286 288 286 285 285 287 286 286 286 285 285 286 287 287 286 285 286 286 286 287
284 283 283 285 285 284 285 286 286 287 285 285 285 285 287 286 285 285 285 285 285 285 285 285 285 285 286
283 283 283 284 283 283 283 283 284 285 284 283 283 283 284 285 285 285 285 285 285 285 285 285 284 284 286
282 283 283 284 283 283 282 282 282 282 282 281 282 282 282 283 284 285 285 285 284 284 284 284 285 285 285
283 283 283 283 282 281 281 280 280 280 280 280 280 281 281 282 282 282 283 284 283 283 284 284 284 284 284
283 283 283 282 282 281 281 281 281 281 281 280 280 280 280 281 281 281 282 283 283 283 283 283 283 283 284
282 283 283 282 281 281 281 281 281 281 282 282 280 279 279 280 280 281 282 283 283 283 282 282 283 284 284
282 283 283 282 282 281 280 280 281 281 281 281 280 280 281 282 282 282 283 283 283 283 282 282 283 283 284
282 282 282 282 281 281 281 280 280 280 281 280 279 279 280 282 282 282 281 282 282 282 282 283 283 283 283

GFSFLT2_925_thetae_099.txt.gz
Theta_e
304 302 301 300 299 299 299 298 298 300 299 299 299 299 298 296 295 295 294 294 293 294 294 295 296 295 296
301 300 299 298 298 297 296 295 295 297 297 297 296 294 293 293 292 291 290 291 292 292 293 293 294 294 294
300 299 297 296 295 294 293 294 293 294 292 291 290 290 290 289 288 288 287 287 291 291 291 292 292 293 293
299 296 296 294 294 293 292 291 291 290 289 288 288 287 286 286 286 285 285 286 288 289 290 291 292 292 292
297 296 294 292 293 292 292 291 289 288 287 287 287 287 288 288 287 287 287 287 287 289 290 291 291 291 292
296 296 294 294 292 290 289 289 289 287 286 287 288 288 288 288 288 287 287 287 287 288 289 290 289 289 290
293 292 291 290 289 288 288 287 288 288 286 288 288 288 288 287 287 287 287 287 287 288 288 288 288 288 289
290 289 289 288 287 285 286 286 287 287 285 287 289 288 288 288 287 287 286 288 288 288 288 288 288 288 288
286 286 285 285 286 286 286 286 288 287 286 286 288 287 287 287 287 286 285 288 288 288 287 287 287 287 287
284 284 284 285 285 285 286 286 288 288 286 285 285 285 286 288 286 286 285 286 286 286 286 287 287 286 285
284 283 284 285 283 284 284 284 285 286 284 283 283 283 284 285 285 286 286 286 286 285 286 286 286 285 285
283 284 284 284 284 283 283 283 283 283 283 282 282 282 283 283 283 285 285 285 285 285 285 285 285 286 286
283 284 284 284 283 282 282 281 281 281 281 281 281 281 281 282 282 282 282 284 283 284 284 284 284 283 283
284 284 284 282 282 282 281 281 281 281 282 281 281 280 280 281 281 281 282 282 283 283 283 283 283 283 283
283 284 283 283 282 281 281 281 281 281 282 282 282 281 280 280 280 280 281 282 283 284 284 283 282 282 283
283 283 283 283 283 282 281 281 281 281 281 281 281 281 280 281 281 281 281 282 283 283 282 283 283 283 283
283 283 283 283 283 282 282 281 281 280 280 281 280 280 279 279 281 282 282 282 282 282 282 282 282 282 283

GFSFLT2_925_thetae_102.txt.gz
Theta_e
307 304 303 303 300 300 300 301 301 301 302 301 300 299 298 298 297 297 297 295 294 294 294 295 296 296 296
304 302 301 300 300 300 299 298 299 298 298 297 297 296 296 296 295 293 291 289 289 292 292 293 294 294 295
302 300 299 299 298 296 296 295 295 294 293 293 292 292 291 290 290 289 288 287 287 291 290 291 292 293 293
302 299 298 296 295 295 293 293 291 291 290 289 288 287 287 287 287 287 285 285 286 288 289 291 292 292 292
299 296 295 294 294 294 293 292 290 290 288 287 287 287 287 288 288 287 286 286 287 287 290 291 291 291 291
297 296 295 295 293 293 291 289 288 288 287 286 288 288 288 288 288 288 287 287 287 288 288 289 289 289 290
297 296 294 293 292 290 289 288 288 287 287 286 288 288 288 288 287 287 287 287 287 287 288 289 288 289 288
293 291 291 290 289 288 288 287 287 286 286 286 288 288 288 288 287 287 287 287 288 289 288 288 288 288 288
289 288 288 287 286 285 286 286 287 287 286 286 287 287 287 287 287 287 286 287 288 288 288 287 288 288 288
285 284 284 285 285 286 286 286 287 286 286 285 285 285 285 287 287 286 286 286 286 287 287 287 287 287 287
284 283 284 285 284 284 284 285 287 286 284 284 283 283 284 284 284 285 286 286 286 286 286 286 286 287 287
284 283 284 284 284 283 283 283 283 284 284 283 282 282 283 282 283 285 285 285 285 285 285 285 285 285 285
283 283 284 284 284 282 283 282 282 281 281 281 281 281 281 282 282 282 282 283 284 284 284 283 283 283 284
283 284 284 284 284 283 282 281 281 281 281 281 281 281 280 280 281 281 281 281 283 282 283 283 283 283 282
284 284 284 283 282 282 281 281 281 281 281 282 282 282 281 280 280 280 280 280 281 282 283 283 282 282 282
283 283 284 283 283 282 281 281 281 281 281 281 281 281 281 280 280 280 279 280 282 282 282 282 281 281 281
283 283 283 283 283 283 282 281 281 281 281 280 280 280 280 279 279 281 281 281 281 281 281 279 279 280 280

GFSFLT2_925_thetae_105.txt.gz
Theta_e
308 306 305 303 304 303 303 303 303 302 302 302 302 301 300 299 298 298 297 297 296 294 295 295 296 296 296
305 304 304 302 301 301 301 300 299 299 299 298 298 297 297 297 296 296 294 292 290 289 289 292 294 294 295
303 302 301 300 299 299 299 297 296 296 296 295 295 294 293 292 291 290 289 288 287 287 288 290 292 293 294
305 300 300 299 299 298 295 295 294 291 291 291 290 289 289 288 288 289 287 286 285 287 290 290 290 292 293
301 298 297 296 296 295 294 293 291 290 290 288 287 287 287 287 287 287 286 286 286 288 290 291 291 291 292
300 298 297 297 295 295 293 290 289 289 288 287 287 287 287 287 288 288 288 287 287 288 290 290 291 289 290
301 299 297 297 296 293 292 290 289 287 287 286 287 287 288 288 288 287 287 287 287 287 288 290 289 289 289
299 298 296 295 294 294 292 289 287 287 286 285 287 287 287 287 287 287 287 286 288 288 289 288 288 289 289
292 291 290 290 289 289 287 286 286 286 286 285 286 287 287 287 287 287 286 286 289 289 288 288 288 288 288
288 287 287 287 286 285 285 285 287 285 285 285 285 285 286 287 287 286 286 286 286 287 287 287 287 287 287
284 284 285 285 285 285 285 286 287 286 285 285 284 283 284 284 285 285 286 286 286 286 286 286 285 286 286
284 283 284 285 283 283 283 284 286 286 285 285 284 283 283 282 282 284 285 284 285 285 285 284 284 284 284
283 283 284 284 284 283 283 283 283 283 283 282 281 281 281 281 281 281 282 284 284 284 284 283 283 283 284
284 283 283 284 284 284 282 282 281 281 281 281 281 281 281 280 280 280 280 281 283 283 282 282 282 282 282
283 283 284 284 284 283 282 281 281 281 281 281 281 281 281 281 280 280 280 280 281 281 282 282 282 281 281
284 284 284 284 283 282 282 281 281 281 280 281 281 281 281 281 280 280 279 279 281 281 281 280 280 280 280
282 282 283 284 283 283 282 282 281 281 281 281 280 281 280 278 280 281 280 280 280 280 281 280 278 280 281

GFSFLT2_925_thetae_108.txt.gz
Theta_e
311 310 308 306 306 305 305 305 305 305 305 305 304 303 302 301 300 299 299 298 298 297 296 295 296 296 296
309 306 305 304 303 302 302 302 302 301 301 301 300 299 298 298 298 298 297 296 294 292 291 289 292 294 295
307 304 302 303 300 299 300 299 299 298 297 297 297 296 296 295 294 293 292 291 289 288 287 287 292 293 294
306 302 302 300 300 300 297 297 295 295 294 293 292 292 292 291 291 290 289 288 286 287 287 289 290 291 293
303 300 299 298 298 298 298 295 293 292 291 291 290 289 287 287 287 287 287 286 286 287 290 291 291 291 292
301 300 300 300 300 298 295 291 290 292 290 289 287 287 287 287 287 287 287 287 287 288 290 291 290 290 289
303 303 301 301 300 296 294 292 291 289 288 287 286 286 287 287 288 288 287 287 287 287 289 290 290 289 289
300 300 300 300 298 297 296 292 289 288 287 286 287 287 287 288 288 288 287 287 287 288 288 290 289 288 289
295 296 295 295 294 294 291 289 286 286 286 285 286 287 287 287 287 287 287 286 288 289 289 289 289 289 288
290 290 289 289 289 289 289 288 286 285 286 285 285 286 286 286 286 286 286 286 287 288 288 288 288 288 287
287 287 287 286 285 285 285 285 286 286 286 285 284 284 284 285 286 286 286 286 286 286 286 286 286 286 286
284 284 284 285 284 284 284 285 285 287 286 285 285 284 283 283 284 284 285 285 285 285 285 285 284 284 284
284 284 284 284 284 283 283 283 284 284 284 284 284 283 282 282 282 282 283 283 283 283 284 283 283 283 283
284 283 283 284 284 283 283 283 283 282 282 282 281 280 280 280 280 280 280 280 282 283 283 282 283 282 282
284 283 283 283 283 283 283 282 281 281 281 281 281 281 281 281 281 281 280 280 279 281 281 282 282 282 281
284 284 283 283 284 284 283 282 281 280 280 280 280 281 281 281 281 281 280 279 280 281 281 279 280 281 281
284 284 284 284 284 283 282 282 281 281 281 281 280 281 279 279 280 281 281 281 280 280 280 280 279 280 281

GFSFLT2_925_thetae_111.txt.gz
Theta_e
318 314 314 310 310 308 307 306 306 306 307 307 306 305 305 304 302 302 301 300 300 299 298 298 297 297 296
312 309 310 307 307 306 305 304 304 304 303 303 302 302 301 300 300 300 299 298 297 297 295 293 291 294 295
312 306 305 305 303 302 302 301 301 300 299 299 298 298 298 298 297 297 296 295 293 291 289 287 288 293 294
308 304 303 302 301 301 299 299 298 297 297 296 296 296 295 294 293 292 292 290 288 288 286 287 289 291 293
305 302 301 300 300 299 298 297 296 295 294 292 292 292 291 291 290 290 289 288 286 287 291 290 290 290 291
304 302 302 301 300 300 298 294 292 294 292 291 290 289 288 287 287 287 287 287 287 288 291 292 291 290 290
303 303 303 303 303 299 298 295 294 292 290 289 288 287 287 287 287 287 288 288 288 288 289 290 291 291 289
300 300 301 300 300 301 299 295 291 290 288 287 286 286 286 287 288 289 288 287 287 287 288 290 290 290 289
296 297 298 298 297 296 294 292 288 288 287 286 286 286 287 287 288 289 288 287 286 289 290 290 289 289 289
292 292 292 292 292 292 293 291 288 286 286 286 286 287 287 287 287 287 287 286 287 289 289 289 288 288 288
288 288 288 288 288 288 288 288 288 286 286 285 285 285 285 285 286 286 286 286 286 287 288 287 287 286 286
285 285 285 285 285 285 285 285 285 286 286 286 286 285 285 284 284 285 285 285 285 285 285 285 286 286 285
284 284 284 284 284 284 283 284 284 285 286 286 285 285 284 284 283 283 284 284 284 284 284 284 284 284 284
284 284 283 284 284 283 283 283 283 283 283 283 284 283 282 282 282 282 282 283 282 283 283 283 283 283 283
284 284 283 283 283 283 283 283 282 281 282 282 282 281 281 281 281 281 282 281 281 281 282 283 283 282 282
285 284 283 283 283 283 283 283 283 281 281 281 281 281 280 281 281 281 281 281 281 281 281 280 281 282 281
283 284 284 283 283 283 283 283 282 282 281 280 280 280 279 277 281 281 281 282 281 280 281 280 280 281 281

GFSFLT2_925_thetae_114.txt.gz
Theta_e
318 318 315 314 312 309 308 308 309 309 309 309 309 308 308 308 308 306 305 303 302 301 300 299 299 298 297
314 315 313 310 308 307 307 306 306 306 305 305 305 303 303 303 302 302 301 300 299 298 298 296 296 296 295
312 309 309 307 305 304 304 304 304 302 302 302 301 300 300 300 300 299 298 297 297 296 294 291 290 294 295
309 307 306 304 302 303 300 301 300 300 299 299 298 298 297 297 297 297 296 295 293 291 289 287 287 293 294
306 303 302 300 301 302 300 299 298 298 297 297 297 296 296 294 293 293 292 291 289 288 287 288 290 291 292
303 302 303 303 301 301 299 295 293 297 295 294 293 292 291 290 289 289 289 288 288 287 291 292 292 290 291
299 300 301 302 301 299 298 297 297 296 293 291 290 290 289 288 287 287 287 288 289 290 291 292 292 290 290
298 299 299 300 299 300 300 297 294 292 291 290 289 288 287 286 287 288 290 289 289 289 289 290 291 291 290
295 296 297 298 297 297 296 293 288 288 288 287 286 286 286 286 287 290 289 287 287 287 289 289 290 290 289
291 291 292 293 294 293 293 292 290 288 289 287 286 286 286 286 287 289 288 287 287 289 290 290 290 289 289
288 288 288 288 289 290 290 290 291 288 286 287 285 285 286 285 286 287 287 287 286 288 288 288 288 288 288
285 285 285 285 285 285 285 286 287 287 286 285 286 286 285 284 285 285 286 286 286 286 287 287 287 287 286
285 284 284 284 284 284 284 284 285 285 285 285 285 285 285 285 284 284 285 285 285 285 285 285 285 285 285
285 284 283 283 284 283 283 283 283 284 284 285 285 284 284 284 284 284 284 284 284 284 284 284 284 284 284
285 284 283 283 283 284 283 283 283 282 282 282 282 282 282 282 282 283 283 282 283 282 282 283 284 284 284
284 285 284 283 283 283 283 283 283 283 282 281 281 281 281 282 282 282 282 282 282 281 281 281 282 283 282
284 284 284 284 283 283 282 283 283 283 282 281 281 280 279 279 281 281 281 282 281 281 281 280 281 283 282

GFSFLT2_925_thetae_117.txt.gz
Theta_e
318 318 317 316 314 312 311 310 310 311 311 312 311 311 310 310 310 310 309 308 306 304 303 302 302 300 299
312 313 314 313 311 310 309 308 308 308 307 307 307 307 307 306 306 306 304 303 302 301 300 300 300 298 297
310 311 311 310 308 306 306 306 305 305 304 304 304 304 302 302 303 302 301 300 300 300 299 297 296 296 296
307 308 307 306 304 305 303 302 302 302 301 301 300 300 300 300 300 299 299 298 297 296 294 291 291 294 295
303 304 303 303 303 303 302 302 299 299 299 299 298 298 298 297 296 296 296 295 293 292 290 288 288 294 294
301 301 302 302 302 301 299 296 295 298 298 297 296 296 296 295 294 293 293 292 291 289 290 291 292 293 293
298 299 299 300 300 300 298 297 297 297 294 294 294 293 293 292 290 289 288 289 288 289 291 292 292 292 292
296 296 297 298 298 298 298 296 296 296 294 291 291 291 290 290 288 287 288 289 289 290 291 292 292 292 291
293 293 295 296 297 296 296 293 291 291 290 289 288 288 288 288 287 287 290 290 290 290 290 291 291 292 291
291 290 291 292 293 294 293 293 291 290 291 289 287 287 287 286 286 289 290 289 288 287 290 290 290 291 290
288 288 288 287 288 290 291 291 291 292 289 289 287 286 286 286 286 288 289 288 287 288 290 290 290 289 289
286 285 285 285 285 285 285 287 288 288 288 287 286 286 285 285 286 286 288 288 287 287 288 288 288 288 288
286 285 284 284 284 284 284 284 285 285 285 285 285 285 285 285 285 284 285 286 286 286 286 287 287 287 287
286 285 284 283 283 283 283 283 283 284 285 285 285 285 285 284 284 284 285 285 285 285 285 285 285 285 285
285 285 284 283 283 283 283 283 283 283 283 283 284 284 283 283 283 284 284 284 284 284 284 284 285 285 285
285 284 284 284 283 283 283 283 283 283 283 282 282 281 282 283 283 283 283 282 283 283 282 282 283 284 285
286 285 284 284 283 283 283 282 282 283 283 282 281 281 282 284 282 281 282 283 282 282 282 281 282 282 282